Regional Weather Roundup
Issued by NWS

Home | Current Version | Previous Version | Graphics & Text | Print | Product List | Glossary On
Versions: 1 2 3 4 5 6 7 8 9 10 11 12 13 14 15 16 17 18 19 20 21 22 23 24 25 26 27 28 29 30 31 32 33 34 35 36 37 38 39 40 41 42 43 44 45 46 47 48 49 50
483
ASUS43 KIND 311959
RWRIN

WEATHER ROUNDUP FOR INDIANA
NATIONAL WEATHER SERVICE INDIANAPOLIS IN
400 PM EDT WED AUG 31 2016

NOTE: "FAIR" INDICATES FEW OR NO CLOUDS BELOW 12,000 FEET WITH NO
SIGNIFICANT WEATHER AND/OR OBSTRUCTIONS TO VISIBILITY.

* - STATION DOES NOT REPORT WEATHER SUCH AS PRECIPITATION OR FOG.

+ - STATION NOT QUALITY CONTROLLED BY THE NATIONAL WEATHER SERVICE.
    USE DATA WITH CAUTION...ESPECIALLY DEWPOINT AND RELATIVE
    HUMIDITY OBSERVATIONS.

INZ001>003-010>013-019-020-312100-
NORTHWEST INDIANA

CITY           SKY/WX    TMP DP  RH WIND       PRES   REMARKS
GARY /AIRPORT/ PTSUNNY   73  63  68 N21       30.07F
KNOX *+        CLOUDY    77  45  31 N20       30.02S
MONTICELLO +   MOSUNNY   80  66  60 N13G18    29.99S
RENSSELAER +   MOSUNNY   79  68  69 NW10G23   30.02S

$$

LMZ046-743>745-312100-
SOUTHERN LAKE MICHIGAN

STATION/POSITION TIME  TEMP    WIND        PRES    WAVE
                       AIR SEA DIR/SP/G            HT
                 (UTC) (F)     (DEG/KT/KT) (MB)    (FT)
BURNS HARBOR     1907   72      10/ 15/ 20 1018.3S
MICHIGAN CITY    1900   71     340/ 20/ 22   N/A
5NW MICH CITY    1900   72 69  360/ 17/ 23   N/A     6

$$

INZ004-005-014>016-021>024-312100-
NORTH CENTRAL INDIANA

CITY           SKY/WX    TMP DP  RH WIND       PRES   REMARKS
ELKHART        PTSUNNY  N/A N/A N/A NW12      29.99F
GOSHEN         CLOUDY    76  68  76 N12       29.99S
PERU/GRISSOM   TSTM      75  66  73 N25G35    29.95F FOG
SOUTH BEND     CLOUDY    76  64  66 N17G23    30.02S

$$

INZ006>009-017-018-025>027-312100-
NORTHEAST INDIANA

CITY           SKY/WX    TMP DP  RH WIND       PRES   REMARKS
ANGOLA *+      MOSUNNY   79  70  73 VRB7      29.98F
FORT WAYNE     CLOUDY    84  67  56 VRB5      29.96F

$$

INZ028-029-035-036-043>045-051>053-312100-
WEST CENTRAL INDIANA

CITY           SKY/WX    TMP DP  RH WIND       PRES   REMARKS
CRAWFORDSVL +  SUNNY     80  69  69 NW7       29.99F
GREENCASTLE +  MOSUNNY   82  72  69 N7        29.99F
LAFAYETTE      CLOUDY    83  71  67 NW13G22   29.98F
TERRE HAUTE    MOSUNNY   85  69  58 NW8       29.97F

$$

INZ030>032-037>040-046>048-054>057-064-065-312100-
CENTRAL INDIANA

CITY           SKY/WX    TMP DP  RH WIND       PRES   REMARKS
ANDERSON       MOSUNNY   81  68  65 NW12      29.98
INDIANAPOLIS   PTSUNNY   85  67  54 N13       29.96F
-EAGLE CREEK   MOSUNNY   84  68  58 N15       29.96F
KOKOMO *+      MOSUNNY   82  70  65 N5        29.97F
MT COMFORT *+  SUNNY     82  70  65 N12       29.98F
SHELBYVILLE    PTSUNNY   82  70  66 N10       29.96F

$$

INZ033-034-041-042-049-050-058-059-312100-
EAST CENTRAL INDIANA

CITY           SKY/WX    TMP DP  RH WIND       PRES   REMARKS
MUNCIE         MOSUNNY   83  72  69 N10G18    29.97F

$$

INZ060-061-067>069-081>083-085>088-312100-
SOUTHWEST INDIANA

CITY           SKY/WX    TMP DP  RH WIND       PRES   REMARKS
EVANSVILLE     SUNNY     90  69  50 NW12      29.96F
HUNTINGBURG *+ MOSUNNY   88  72  58 NW6       29.96F

$$

INZ062-063-066-070>080-084-089>092-312100-
SOUTH CENTRAL AND SOUTHEAST INDIANA

CITY           SKY/WX    TMP DP  RH WIND       PRES   REMARKS
BLOOMINGTON    MOSUNNY   84  71  65 VRB6      29.97F
MADISON *+     MOSUNNY   86  66  51 CALM      29.97F

$$





USA.gov is the U.S. government's official web portal to all federal, state and local government web resources and services.